RH
48 48 48 49 50 50 52 52 53 54 53 52 51 50 50 49 48 46 42 35 29 25 25 26 25 24 24 23 22 20 19 18 17 18 18 19 19 19 19 19 18 18 17
49 49 50 50 50 51 54 54 54 54 53 52 52 52 49 46 48 49 46 38 31 29 31 30 29 30 32 34 35 36 36 35 34 32 29 25 20 18 18 19 20 21 21
52 53 52 52 52 52 56 56 55 55 54 55 50 48 47 48 48 51 48 41 34 32 32 32 37 38 38 38 38 39 40 40 40 39 38 38 36 34 32 27 22 18 17
56 56 55 53 54 53 57 58 56 56 56 54 50 52 54 57 52 50 50 43 37 34 34 38 40 40 40 39 38 38 38 40 41 43 42 40 38 38 37 35 32 30 26
53 53 54 55 54 53 59 57 57 55 55 55 56 58 57 56 54 52 51 46 40 37 38 42 45 44 43 41 40 41 42 43 44 45 44 44 42 39 37 36 33 30 27
51 52 53 56 55 53 56 58 60 58 58 55 57 63 61 55 55 54 53 49 43 40 41 44 46 47 46 44 43 44 45 47 47 46 46 46 44 42 39 36 32 27 23
53 56 55 58 56 55 59 62 60 58 58 57 59 65 66 57 57 60 58 53 46 44 46 48 49 51 50 49 48 48 49 50 50 49 47 46 46 45 42 37 30 24 20
48 54 55 58 63 62 66 65 62 62 63 62 64 74 69 67 61 66 64 60 54 48 48 49 52 55 56 55 54 51 51 52 53 52 51 51 49 47 46 42 32 22 19
48 54 58 60 60 65 69 69 71 69 69 70 76 82 77 75 73 71 70 66 64 59 53 52 55 58 60 60 58 56 53 53 52 51 52 54 54 54 50 46 37 25 19
76 64 68 64 62 70 71 68 74 76 78 78 86 78 89 78 89 82 78 78 76 73 70 60 55 56 59 59 59 59 59 57 55 53 53 56 59 58 55 51 40 25 19
76 78 71 67 65 65 70 73 77 80 84 86 85 95 91 95 94 96 95 92 88 82 81 78 69 71 76 72 65 61 60 60 60 60 61 62 64 63 59 53 41 25 20
53 61 70 71 70 65 75 78 78 79 84 92 93 93 95 90 91 100 85 98 98 90 88 90 88 86 84 78 82 70 68 67 66 65 66 69 69 66 62 51 33 22 20
61 57 58 60 62 62 75 88 89 83 80 89 92 97 100 94 90 99 92 100 99 98 99 99 94 96 85 89 86 80 77 76 74 75 76 75 75 71 54 31 22 22 23
74 72 68 67 72 77 83 84 89 86 81 83 86 99 99 99 96 92 94 100 100 99 99 99 100 99 99 97 84 89 89 84 83 83 82 86 78 53 25 22 23 22 19
59 68 69 72 72 73 80 83 83 86 92 91 93 96 94 96 97 94 99 97 100 96 98 100 100 100 99 97 92 93 88 91 88 86 88 81 44 23 23 22 17 12 9
39 34 41 56 66 69 70 71 68 73 93 100 98 96 98 96 91 95 99 99 99 99 100 100 100 99 99 100 99 96 92 88 91 88 61 27 23 24 18 13 9 6 5
37 31 36 41 53 60 63 60 63 65 75 84 98 100 100 97 87 99 99 100 99 99 100 100 100 99 98 97 98 96 94 88 57 24 23 22 16 11 7 5 5 5 4
39 35 33 37 41 54 62 70 69 82 90 99 99 100 98 95 99 100 99 100 99 99 99 99 99 98 97 97 97 94 70 26 22 19 13 7 5 5 5 4 4 4 4
53 39 42 42 38 48 57 67 79 94 93 88 81 92 100 100 96 99 100 99 98 98 98 98 97 98 97 97 79 25 22 17 11 6 5 5 5 4 4 4 4 4 5
67 52 49 54 47 41 53 73 80 83 86 96 99 99 99 99 99 100 98 98 100 99 97 97 97 94 48 22 19 13 8 5 5 5 5 5 4 4 6 9 13 19 24
58 56 59 50 47 50 72 85 75 79 83 93 100 100 100 100 98 98 97 94 97 97 97 90 30 21 16 10 6 5 5 5 5 5 5 6 9 21 38 43 43 47 49
80 74 65 90 100 100 85 88 100 100 100 99 100 99 99 99 98 98 97 96 97 61 23 19 12 7 6 6 5 5 5 5 5 6 10 20 35 39 45 48 53 54 54
87 98 100 100 100 99 100 90 99 96 99 99 98 98 96 96 97 91 65 25 21 14 9 7 6 6 6 6 5 6 6 6 10 34 36 27 49 41 48 54 60 63 65
100 99 100 98 99 94 98 99 97 99 98 97 97 97 90 47 24 22 16 11 8 6 6 6 6 6 6 6 6 6 12 25 35 45 47 32 45 40 46 48 58 65 68
99 99 100 100 100 98 98 98 96 96 96 72 35 26 21 15 10 9 9 7 6 6 6 6 6 7 7 7 11 28 41 42 40 47 57 50 47 44 42 43 51 58 67
97 98 98 97 97 97 94 58 26 25 23 18 13 11 11 10 8 7 7 7 7 6 6 7 7 7 9 29 42 45 46 45 48 50 64 54 52 56 42 47 54 62 60
Wind_Speed
17 16 17 17 17 17 17 16 15 14 13 12 13 13 15 16 17 16 15 13 12 12 11 11 10 9 9 9 9 10 11 12 13 13 14 15 15 16 16 16 16 16 17
21 20 19 19 19 19 20 19 17 16 16 16 16 17 18 19 19 17 16 15 13 13 12 11 10 9 9 9 10 11 12 13 14 14 16 17 18 19 20 21 21 21 21
23 22 22 22 21 21 22 20 19 18 18 19 20 20 19 19 18 17 16 15 15 14 13 12 11 10 10 10 10 11 12 13 15 16 16 17 18 20 21 22 23 24 25
24 24 24 24 23 23 23 22 20 20 21 21 21 20 20 19 19 18 17 16 16 15 14 13 13 13 13 13 13 14 15 16 17 18 19 19 20 21 22 23 24 25 26
28 26 25 25 25 24 25 23 22 22 22 22 22 21 21 21 19 19 18 17 17 16 16 15 15 15 15 16 16 17 18 19 19 19 20 21 22 23 24 25 25 26 27
30 30 28 27 26 25 25 24 23 23 23 24 23 22 21 21 20 20 19 19 19 18 18 19 18 18 18 19 19 19 19 20 21 22 23 24 25 25 26 27 27 28 28
34 33 31 29 28 26 26 26 26 26 24 24 24 22 22 22 21 20 20 21 21 21 21 22 22 21 22 22 22 22 22 23 24 24 25 26 28 29 29 30 30 30 31
35 36 34 32 30 29 28 28 27 26 25 25 25 24 24 23 21 21 21 22 23 24 24 25 25 25 25 26 26 26 26 26 27 28 28 30 32 32 33 33 33 33 33
36 37 34 34 36 35 33 32 30 28 28 26 25 26 26 25 23 24 24 24 24 25 26 27 28 29 28 30 31 31 31 31 31 32 33 35 36 37 37 37 37 37 36
42 39 38 38 36 37 37 36 34 32 30 29 28 30 29 29 29 30 28 27 26 27 28 29 31 32 33 34 35 36 36 36 36 37 38 39 41 42 41 41 40 40 39
48 47 44 42 37 39 41 39 38 36 33 33 35 31 33 35 35 35 34 32 30 29 32 34 34 35 36 38 39 40 40 41 41 41 41 43 45 46 46 44 44 43 43
50 54 53 51 49 44 41 39 40 38 37 36 34 35 33 33 34 33 33 35 31 33 34 38 40 40 41 41 43 44 44 44 44 44 45 47 50 51 48 47 46 46 46
39 41 45 47 48 45 41 40 38 37 37 40 38 37 36 38 37 37 37 40 40 42 36 40 38 41 42 44 45 47 47 47 48 48 49 51 52 51 49 48 48 48 49
38 34 33 39 43 45 45 43 41 40 39 40 40 40 41 41 41 40 42 50 51 42 40 43 41 46 48 47 47 52 49 49 52 53 55 53 51 50 49 50 50 51 51
36 40 39 38 37 37 38 40 43 41 40 40 41 41 42 44 44 46 51 45 53 42 47 47 52 48 49 50 50 51 52 51 54 55 53 52 51 51 51 51 52 53 53
31 32 35 39 42 43 40 40 42 41 42 43 42 42 41 42 45 48 52 50 52 48 50 53 56 55 50 52 49 52 52 53 52 53 53 54 55 55 55 54 56 56 57
31 35 37 38 39 41 41 42 42 43 46 46 46 44 42 45 45 50 55 49 55 50 50 52 53 53 51 46 46 47 47 50 52 52 53 54 56 57 57 58 59 60 62
31 35 37 40 40 40 41 41 40 39 42 43 42 43 44 47 48 54 52 48 51 48 49 51 49 47 46 45 46 47 47 51 52 53 53 53 56 58 59 61 62 62 63
34 32 34 38 38 40 40 41 39 38 38 40 44 52 41 45 47 50 50 50 43 42 44 43 42 41 43 45 45 46 49 51 52 53 52 54 57 58 58 57 57 57 55
35 31 31 34 36 36 37 37 36 35 36 37 39 43 41 43 48 45 44 39 41 40 40 39 40 42 44 43 46 48 50 50 53 53 53 55 55 52 48 45 45 44 43
27 26 26 26 26 30 33 32 33 33 37 37 39 40 39 41 37 36 35 36 36 36 40 41 40 41 43 46 47 50 53 55 54 50 48 44 41 37 34 36 39 40 40
19 19 21 20 19 23 30 27 24 25 31 33 33 32 31 28 26 27 31 34 37 38 38 40 40 42 45 48 50 51 52 49 46 39 38 33 33 32 32 34 33 35 36
15 15 17 21 21 23 20 26 22 27 29 27 23 21 21 24 27 31 35 36 35 37 40 42 43 44 47 47 47 44 40 38 36 32 34 32 31 31 32 31 31 31 31
10 12 11 15 15 21 27 20 24 22 17 14 15 18 22 25 30 32 35 38 37 37 39 41 43 44 43 39 36 32 29 30 30 29 33 38 33 35 35 31 28 28 29
12 10 10 11 10 9 7 5 4 7 11 15 19 22 25 28 33 36 39 38 38 40 40 40 39 36 31 26 26 27 27 30 32 29 31 37 33 36 33 27 24 22 23
8 12 12 8 7 5 6 5 7 9 14 18 23 27 30 34 36 37 40 39 40 39 36 31 25 21 19 20 21 24 27 30 33 33 35 38 33 38 34 25 22 22 22
Wind_Direction
249 250 257 260 263 263 267 271 275 279 281 283 287 289 292 295 295 296 297 299 300 300 300 303 308 313 315 318 319 317 314 310 306 303 299 295 291 289 287 284 281 278 276
247 249 251 257 259 259 265 268 271 278 280 284 288 291 291 290 288 288 289 292 292 292 294 296 301 307 315 321 323 323 320 318 314 310 305 301 298 294 290 287 285 282 280
247 250 252 255 258 258 263 266 268 274 279 283 289 292 294 291 286 283 283 285 287 287 287 288 293 298 304 309 312 313 314 314 312 310 307 304 302 299 297 294 291 287 284
248 251 252 256 257 258 260 260 263 271 279 282 285 288 289 288 285 280 279 281 281 282 280 282 285 290 296 301 305 307 309 310 310 309 308 307 305 302 300 296 293 290 288
248 250 250 254 256 257 257 256 261 271 275 277 279 283 286 286 282 278 276 276 276 275 275 275 277 284 290 295 299 305 309 310 310 309 307 306 305 303 301 297 294 291 287
249 249 250 251 252 252 252 256 263 267 270 276 277 279 284 282 278 275 274 273 272 271 272 272 274 277 283 288 294 300 304 307 309 309 309 308 305 304 302 299 295 291 287
251 249 249 251 252 248 248 255 258 263 268 271 270 274 278 278 277 278 275 272 270 269 269 271 274 277 282 286 290 293 297 300 302 304 305 306 305 303 302 299 296 292 289
255 254 251 252 253 248 245 255 260 262 263 266 266 269 273 276 277 277 273 272 270 268 268 270 272 276 280 284 286 288 292 295 298 300 303 305 306 303 301 299 297 294 290
262 257 257 257 252 249 247 252 257 259 259 263 262 267 273 276 277 274 274 273 272 271 271 271 272 275 278 281 283 284 287 290 294 297 300 302 304 302 300 298 297 294 291
263 262 259 258 256 253 250 252 252 256 254 256 257 258 266 271 277 275 273 273 271 272 272 272 274 277 279 280 281 283 285 287 289 292 295 299 302 302 299 297 294 292 289
253 256 256 256 256 255 254 252 250 251 253 255 264 266 264 273 268 271 272 272 270 275 273 271 270 273 277 279 279 280 282 284 287 290 293 297 299 300 297 294 293 291 290
256 256 256 257 258 257 253 252 252 251 251 253 257 258 264 268 270 269 276 270 264 267 271 275 274 270 274 278 279 279 282 284 286 288 291 295 297 296 293 291 289 288 287
257 254 253 253 251 250 251 249 249 252 254 255 256 261 262 264 269 266 273 264 267 280 264 268 274 275 272 279 279 279 281 284 286 287 290 292 294 292 290 289 287 286 285
254 255 253 254 252 250 249 249 249 250 253 253 256 258 261 263 266 268 270 266 270 274 273 266 268 269 271 275 280 280 278 282 285 288 290 290 290 289 288 287 286 285 283
249 249 249 249 249 250 251 254 254 253 254 256 257 258 262 266 269 267 268 271 269 274 279 275 274 270 272 274 278 280 280 282 285 287 288 289 288 286 285 284 284 284 284
250 247 246 246 248 251 252 253 255 256 257 255 257 259 265 266 273 270 271 274 274 276 272 282 271 271 270 270 275 280 282 284 286 289 290 289 288 287 287 287 286 286 285
254 250 239 240 242 244 245 249 251 253 253 255 259 264 265 268 273 271 274 278 274 275 270 277 275 274 274 277 282 281 281 284 287 288 288 290 289 289 288 287 287 287 286
256 250 242 240 240 240 241 245 250 252 254 256 258 258 268 272 270 281 267 269 277 272 276 275 276 277 279 282 282 285 289 285 287 288 289 289 287 288 289 289 289 287 286
263 256 248 243 245 243 244 245 247 251 254 257 259 264 261 259 276 275 277 278 275 277 276 278 279 280 284 286 290 284 285 286 287 289 291 292 291 291 290 289 287 285 284
259 254 255 251 245 243 244 246 248 254 259 251 264 270 268 271 276 272 275 276 277 275 276 281 282 287 287 288 287 287 287 290 291 294 297 296 294 292 292 289 287 287 285
248 258 258 249 241 237 238 242 249 254 256 262 264 262 269 270 275 279 279 276 275 281 283 289 287 288 288 288 291 293 296 296 298 298 296 294 294 297 293 289 288 288 287
245 247 247 235 227 229 244 244 250 253 264 257 266 271 271 278 281 276 278 284 286 285 284 284 287 290 293 295 296 297 298 300 298 300 300 306 303 300 294 290 291 288 287
240 233 228 223 230 231 252 251 253 260 269 270 271 280 287 288 287 288 288 281 282 287 291 294 296 297 296 298 298 300 301 301 306 313 312 306 308 305 299 300 297 293 288
247 239 241 258 229 253 250 254 266 259 262 273 283 287 289 285 285 283 283 286 292 294 294 298 298 299 299 299 299 301 306 308 311 320 316 308 315 311 310 312 306 298 293
235 234 248 246 244 223 233 252 272 280 293 290 285 283 287 283 282 286 291 293 296 299 300 298 296 296 297 302 309 312 312 313 315 324 319 311 321 314 316 320 311 304 294
123 115 99 92 81 61 29 329 284 289 292 291 289 289 288 288 290 293 295 300 302 301 300 298 299 301 305 306 308 311 316 320 324 329 320 317 323 318 319 331 331 321 309